Philip, SD

9:00 PM MST on November 21, 2017 (GMT -0700)
Philip

Weather History for KPHP - August, 2014

Change the Weather History Date:

Saturday, August 9, 2014

  Actual Average Record
Temperature  
Mean Temperature 75 °F 75 °F  
Max Temperature 88 °F 91 °F 107 °F (1958)
Min Temperature 62 °F 60 °F 46 °F (1967)
Degree Days  
Heating Degree Days 0 0  
Month to date heating degree days 0 0  
Since 1 June heating degree days 94 71  
Since 1 July heating degree days 16 8  
Cooling Degree Days 10 11  
Month to date cooling degree days 77 99  
Year to date cooling degree days 423 554  
Since 1 June cooling degree days 383 527  
Growing Degree Days 24 (Base 50)    
Moisture  
Dew Point 62 °F    
Average Humidity 70    
Maximum Humidity 100    
Minimum Humidity 40    
Precipitation  
Precipitation 0.00 in 0.04 in 1.22 in (1968)
Month to date precipitation 1.02 0.44  
Year to date precipitation 9.95 12.32  
Sea Level Pressure  
Sea Level Pressure 29.96 in    
Wind  
Wind Speed 5 mph (ENE)    
Max Wind Speed 14 mph    
Max Gust Speed 16 mph    
Visibility 8 miles    
Events      
T = Trace of Precipitation, MM = Missing Value Source: NWS Daily Summary

Daily Weather History Graph

Daily Weather History Graph

Search for Another Location

Airport or City:

Trip Planner

Search our weather history database for the weather conditions in past years. The results will help you decide how hot, cold, wet, or windy it might be!

Date:

Astronomy

Aug. 09, 2014 Rise Set
Actual Time 5:43 AM MDT 7:59 PM MDT
Civil Twilight 5:11 AM MDT 8:31 PM MDT
Nautical Twilight 4:31 AM MDT 9:10 PM MDT
Astronomical Twilight 3:47 AM MDT 9:54 PM MDT
Moon 7:01 PM MDT (8/9) 4:26 AM MDT (8/9)
Length of Visible Light 15h 20m
Length of Day
14h 16m
Waxing Gibbous, 98% of the Moon is Illuminated
Aug 9
Waxing Gibbous
Aug 10
Full
Aug 17
Last Quarter
Aug 25
New
Sep 2
First Quarter

Hourly Weather History & Observations

Time (MDT) Temp. Heat Index Dew Point Humidity Pressure Visibility Wind Dir Wind Speed Gust Speed Precip Events Conditions
12:41 AM 62.1 °F - 60.1 °F 93% 29.98 in 8.0 mi Calm Calm - N/A   Mostly Cloudy
12:55 AM 62.1 °F - 61.0 °F 96% 29.95 in 8.0 mi SSW 3.5 mph - N/A   Overcast
1:18 AM 62.1 °F - 60.1 °F 93% 29.98 in 8.0 mi NNW 3.5 mph - N/A   Mostly Cloudy
1:25 AM 62.1 °F - 60.1 °F 93% 29.98 in 9.0 mi Calm Calm - N/A   Mostly Cloudy
1:55 AM 63.0 °F - 61.0 °F 93% 29.94 in 10.0 mi Calm Calm - N/A   Mostly Cloudy
2:44 AM 62.1 °F - 61.0 °F 96% 29.98 in 7.0 mi Calm Calm - N/A   Overcast
2:55 AM 63.0 °F - 61.0 °F 93% 29.94 in 7.0 mi WSW 3.5 mph - N/A   Overcast
3:04 AM 62.1 °F - 61.0 °F 96% 29.98 in 6.0 mi West 3.5 mph - N/A   Overcast
3:55 AM 63.0 °F - 62.1 °F 97% 29.93 in 7.0 mi Calm Calm - N/A   Overcast
4:55 AM 64.0 °F - 62.1 °F 93% 29.93 in 8.0 mi Calm Calm - N/A   Overcast
5:24 AM 63.0 °F - 62.1 °F 97% 29.97 in 7.0 mi Calm Calm - N/A   Overcast
5:55 AM 64.0 °F - 62.1 °F 93% 29.93 in 7.0 mi Calm Calm - N/A   Overcast
6:17 AM 64.0 °F - 63.0 °F 96% 29.98 in 1.8 mi Calm Calm - N/A   Overcast
6:38 AM 64.9 °F - 63.0 °F 93% 29.98 in 0.8 mi Calm Calm - N/A   Overcast
6:53 AM 64.4 °F - 64.4 °F 100% 29.98 in 2.0 mi East 3.5 mph - N/A   Overcast
6:55 AM 64.9 °F - 64.0 °F 97% 29.94 in 2.0 mi East 3.5 mph - N/A   Overcast
7:06 AM 64.9 °F - 64.0 °F 97% 29.99 in 4.0 mi ENE 4.6 mph - N/A   Overcast
7:28 AM 66.9 °F - 64.0 °F 90% 29.98 in 10.0 mi ENE 4.6 mph - N/A   Mostly Cloudy
7:48 AM 68.0 °F - 64.9 °F 90% 29.98 in 10.0 mi ENE 4.6 mph - N/A   Partly Cloudy
7:55 AM 68.0 °F - 64.0 °F 87% 29.94 in 10.0 mi ENE 6.9 mph - N/A   Scattered Clouds
8:02 AM 68.0 °F - 64.0 °F 87% 29.99 in 10.0 mi ENE 6.9 mph - N/A   Mostly Cloudy
8:34 AM 69.1 °F - 64.0 °F 84% 30.00 in 10.0 mi East 5.8 mph - N/A   Mostly Cloudy
8:55 AM 70.0 °F - 64.0 °F 81% 29.95 in 10.0 mi SE 5.8 mph - N/A   Overcast
9:55 AM 73.9 °F - 63.0 °F 68% 29.94 in 10.0 mi East 10.4 mph - N/A   Mostly Cloudy
12:55 PM 80.1 °F 81.2 °F 62.1 °F 54% 29.93 in 10.0 mi ESE 8.1 mph - N/A   Clear
1:55 PM 84.0 °F 84.4 °F 61.0 °F 46% 29.93 in 10.0 mi Variable 4.6 mph - N/A   Clear
2:55 PM 84.9 °F 84.8 °F 60.1 °F 43% 29.92 in 10.0 mi Calm Calm - N/A   Partly Cloudy
3:55 PM 87.1 °F 87.0 °F 61.0 °F 41% 29.91 in 10.0 mi ENE 9.2 mph - N/A   Clear
4:55 PM 84.0 °F 84.0 °F 60.1 °F 44% 29.92 in 10.0 mi ENE 8.1 mph - N/A   Clear
5:55 PM 82.9 °F 83.2 °F 60.1 °F 46% 29.92 in 10.0 mi ENE 8.1 mph - N/A   Clear
6:55 PM 81.0 °F 81.6 °F 60.1 °F 49% 29.93 in 10.0 mi ENE 8.1 mph - N/A   Clear
7:55 PM 75.9 °F - 62.1 °F 62% 29.96 in 10.0 mi ENE 6.9 mph - N/A   Scattered Clouds
8:55 PM 72.0 °F - 63.0 °F 73% 29.98 in 10.0 mi NE 6.9 mph - N/A   Clear
10:55 PM 71.1 °F - 63.0 °F 75% 29.99 in 10.0 mi North 4.6 mph - N/A   Clear
11:55 PM 69.1 °F - 63.0 °F 81% 30.01 in 10.0 mi Calm Calm - N/A   Clear